Terminal Aerodrome Forecast
Issued by NWS Omaha/Valley, NE

Home | Current Version | Previous Version | Text Only | Print | Product List | Glossary Off
Versions: 1 2 3 4 5 6 7 8 9 10 11 12 13 14 15 16 17 18 19 20 21 22 23 24 25 26 27 28 29 30 31 32 33 34 35 36 37 38 39 40 41 42 43 44

410
FTUS43 KOAX 211720
TAFOFK
TAF
KOFK 211720Z 2118/2218 03012KT P6SM OVC012
     FM212000 04011KT P6SM OVC040
     FM220100 06007KT P6SM BKN110
     FM221000 11009KT P6SM VCSH OVC045
     FM221500 12013KT P6SM OVC060=

USA.gov is the U.S. government's official web portal to all federal, state and local government web resources and services.